Weather History for Vancouver, WA

Change the Weather History Date:

Thursday, March 6, 2014

  Actual Average Record
Temperature  
Mean Temperature 51 °F 46 °F  
Max Temperature 56 °F 55 °F 69 °F (2001)
Min Temperature 45 °F 37 °F 26 °F (1999)
Degree Days  
Heating Degree Days 14    
Month to date heating degree days 100  
Since 1 July heating degree days 3563  
Cooling Degree Days 0    
Month to date cooling degree days 0  
Year to date cooling degree days 0  
Moisture  
Dew Point 45 °F    
Average Humidity 78    
Maximum Humidity 89    
Minimum Humidity 66    
Precipitation  
Precipitation 0.18 in 0.11 in 0.75 in (1932)
Month to date precipitation 2.08 0.68  
Year to date precipitation 8.97 10.21  
Snow  
Snow 0.00 in - - ()
Month to date snowfall  
Since 1 July snowfall  
Snow Depth -    
Sea Level Pressure  
Sea Level Pressure 29.83 in    
Wind  
Wind Speed 8 mph (SSW)    
Max Wind Speed 24 mph    
Max Gust Speed 41 mph    
Visibility 10 miles    
Events Rain    
T = Trace of Precipitation, MM = Missing Value Source: NWS Daily Summary

Daily Weather History Graph

Daily Weather History Graph

Search for Another Location

Airport:

Trip Planner

Search our weather history database for the weather conditions in past years. The results will help you decide how hot, cold, wet, or windy it might be!

Date:

Astronomy

Mar. 06, 2014 Rise Set
Actual Time 6:39 AM PST 6:04 PM PST
Civil Twilight 6:10 AM PST 6:34 PM PST
Nautical Twilight 5:35 AM PST 7:08 PM PST
Astronomical Twilight 5:01 AM PST 7:43 PM PST
Moon 9:34 AM PST (3/6) No Moon Set
Length of Visible Light 12h 24m
Length of Day
11h 24m
Waxing Crescent, 33% of the Moon is Illuminated
Mar 6
Waxing Crescent
Mar 8
First Quarter
Mar 16
Full
Mar 23
Last Quarter
Mar 30
New

Hourly Weather History & Observations

Time (PST) Temp. Windchill Dew Point Humidity Pressure Visibility Wind Dir Wind Speed Gust Speed Precip Events Conditions
12:53 AM 53.1 °F - 43.0 °F 69% 29.65 in 10.0 mi SW 15.0 mph 31.1 mph 0.01 in   Overcast
1:53 AM 52.0 °F - 42.1 °F 69% 29.65 in 10.0 mi SSW 15.0 mph 25.3 mph 0.00 in   Mostly Cloudy
2:53 AM 52.0 °F - 43.0 °F 71% 29.64 in 10.0 mi South 15.0 mph 26.5 mph 0.00 in   Scattered Clouds
3:53 AM 51.1 °F - 44.1 °F 77% 29.64 in 10.0 mi South 10.4 mph 18.4 mph 0.01 in Rain Light Rain
4:53 AM 51.1 °F - 44.1 °F 77% 29.65 in 8.0 mi South 10.4 mph 21.9 mph 0.02 in Rain Light Rain
5:53 AM 52.0 °F - 46.0 °F 80% 29.62 in 10.0 mi South 10.4 mph 21.9 mph 0.01 in Rain Light Rain
6:53 AM 51.1 °F - 44.1 °F 77% 29.63 in 9.0 mi South 10.4 mph 20.7 mph 0.01 in Rain Light Rain
7:53 AM 53.1 °F - 44.1 °F 71% 29.62 in 10.0 mi SSE 12.7 mph 19.6 mph 0.00 in   Overcast
8:53 AM 52.0 °F - 45.0 °F 77% 29.64 in 6.0 mi South 13.8 mph 24.2 mph 0.03 in Rain Light Rain
9:53 AM 51.1 °F - 48.0 °F 89% 29.67 in 10.0 mi South 11.5 mph 27.6 mph 0.04 in Rain Light Rain
10:22 AM 51.1 °F - 48.9 °F 92% 29.69 in 10.0 mi South 11.5 mph 26.5 mph 0.01 in Rain Light Rain
10:51 AM 51.8 °F - - N/A% 29.73 in 10.0 mi SSW 16.1 mph 27.6 mph 0.01 in Rain Light Rain
10:53 AM 52.0 °F - - N/A% 29.74 in 10.0 mi SSW 11.5 mph 27.6 mph 0.01 in Rain Light Rain
11:53 AM 51.1 °F - - N/A% 29.81 in 10.0 mi SW 10.4 mph - 0.02 in Rain Light Rain
12:53 PM 51.1 °F - 45.0 °F 80% 29.87 in 10.0 mi SW 6.9 mph - 0.00 in   Overcast
1:53 PM 51.1 °F - 45.0 °F 80% 29.90 in 10.0 mi South 5.8 mph - N/A   Overcast
2:53 PM 52.0 °F - 46.0 °F 80% 29.92 in 9.0 mi South 5.8 mph - 0.00 in Rain Light Rain
3:53 PM 54.0 °F - 46.0 °F 75% 29.95 in 10.0 mi SW 9.2 mph - 0.02 in   Mostly Cloudy
4:53 PM 53.1 °F - 44.1 °F 71% 29.97 in 10.0 mi WSW 5.8 mph - N/A   Scattered Clouds
5:53 PM 52.0 °F - 45.0 °F 77% 30.00 in 10.0 mi Variable 3.5 mph - N/A   Partly Cloudy
6:53 PM 51.1 °F - 45.0 °F 80% 30.03 in 10.0 mi SW 3.5 mph - N/A   Overcast
7:53 PM 50.0 °F - 44.1 °F 80% 30.06 in 10.0 mi WSW 3.5 mph - N/A   Partly Cloudy
8:53 PM 46.0 °F 43.9 °F 42.1 °F 86% 30.10 in 10.0 mi East 4.6 mph - N/A   Clear
9:53 PM 48.9 °F - 44.1 °F 83% 30.13 in 10.0 mi Calm Calm - N/A   Overcast
10:53 PM 48.9 °F - 44.1 °F 83% 30.15 in 10.0 mi SE 3.5 mph - N/A   Mostly Cloudy
11:53 PM 48.9 °F - 44.1 °F 83% 30.17 in 10.0 mi Calm Calm - N/A   Partly Cloudy